Regional Weather Roundup
Issued by NWS Memphis, TN

Home | Current Version | Previous Version | Text Only | Print | Product List | Glossary On
Versions: 1 2 3 4 5 6 7 8 9 10 11 12 13 14 15 16 17 18 19 20 21 22 23 24 25 26 27 28 29 30 31 32 33 34 35 36 37 38 39 40 41 42 43 44 45 46 47 48 49 50
000
ASUS44 KMEG 250510
RWRMEG
MEMPHIS CWA HOURLY WEATHER ROUNDUP
NATIONAL WEATHER SERVICE MEMPHIS TN
1200 AM CDT SAT APR 25 2015

...WEST TENNESSEE...

CITY           SKY/WX    TMP DP  RH WIND       PRES   REMARKS
MEMPHIS INTL   TSTM      58  55  90 S14       29.80R
NWS MEMPHIS      N/A     56 N/A N/A MISG        N/A
JACKSON        LGT RAIN  56  53  90 S12       29.81F
LEXINGTON      MOCLDY    54  54 100 SE5       29.85F
SAVANNAH       CLOUDY    54  32  43 SE7       29.87F
DYERSBURG      CLOUDY    55  43  62 SE9G22    29.78F
UNION CITY     CLEAR     54  32  43 S15       29.76F
PARIS          CLOUDY    54  52  94 S14       29.81F


...EASTERN ARKANSAS...

CITY           SKY/WX    TMP DP  RH WIND       PRES   REMARKS
JONESBORO      CLOUDY    56  56 100 S12       29.73R
WEST MEMPHIS   LGT RAIN  57  57 100 S17G24    29.75F
BATESVILLE     CLOUDY    57  55  94 SE9       29.71S
NEWPORT        CLOUDY    57  57 100 S12       29.73F
WALNUT RIDGE   CLOUDY    57  54  88 S12       29.71S
BLYTHEVILLE    LGT RAIN  57  56  96 SE20G32   29.72F
SEARCY         CLOUDY    59  58  96 E3        29.72F
STUTTGART      CLOUDY    59  55  88 SE16      29.73F
PINE BLUFF     HVY RAIN  60  59  96 S12       29.83R FOG
MONTICELLO     HVY RAIN  62  61  96 W9        29.86R FOG


...NORTH MISSISSIPPI...

CITY           SKY/WX    TMP DP  RH WIND       PRES   REMARKS
TUPELO         LGT RAIN  59  55  87 NE12      29.85F
OXFORD         CLOUDY    55  55 100 E5        29.84F FOG
OLIVE BRANCH   CLOUDY    54 N/A N/A SE13      29.81F
TUNICA         TSTM      55  55 100 E13       29.80F
CLARKSDALE       N/A     57  57 100 E14       29.80F
CORINTH        DRIZZLE   55  54  94 E6        29.85F
GREENWOOD      CLOUDY    65  61  87 SE10      29.74F
COLUMBUS       LGT RAIN  61  59  94 S5        29.84R
STARKVILLE     RAIN      61  59  94 SE8       29.81F
GOLDEN TRIANGL CLOUDY    63  57  82 S9        29.84F


...SOUTHEAST MISSOURI...

CITY           SKY/WX    TMP DP  RH WIND       PRES   REMARKS
WEST PLAINS    FOG       53  52  96 SE6       29.72S VSB 1/4
POPLAR BLUFF   CLOUDY    55  52  89 CALM      29.74F
CAPE GIRARDEAU CLOUDY    56  52  86 SE5       29.77F


...NORTHWEST ALABAMA...

CITY           SKY/WX    TMP DP  RH WIND       PRES   REMARKS
MUSCLE SHOALS  HVY RAIN  57  53  86 E6        29.90S FOG


...MIDDLE TENNESSEE...

CITY           SKY/WX    TMP DP  RH WIND       PRES   REMARKS
NASHVILLE      LGT RAIN  54  51  90 S9        29.88F
CLARKSVILLE    CLOUDY    56  49  77 S10       29.81F
COLUMBIA       CLOUDY    54  32  43 S7        29.89S


...WESTERN KENTUCKY...

CITY           SKY/WX    TMP DP  RH WIND       PRES   REMARKS
PADUCAH        CLOUDY    58  51  78 S6        29.78R
FORT CAMPBELL  CLOUDY    57  49  75 S12       29.80F


...CENTRAL ARKANSAS...

CITY           SKY/WX    TMP DP  RH WIND       PRES   REMARKS
LITTLE ROCK    TSTM      61  57  88 S6        29.76R


SKY/WX REPORTED AS FAIR MEANS FEW OR NO CLOUDS BELOW
12 THOUSAND FEET.




USA.gov is the U.S. government's official web portal to all federal, state and local government web resources and services.